カタログに戻る

COSMOS 2251 DEB

運用中LEO
NORAD 35993·DEBRIS·🇷🇺 Russia

打ち上げ Jun 16, 1993 から Plesetsk Cosmodrome

Loading…

次のパス (今後24時間)

TLE

最新Source: Space-Track

元期: Sep 13, 2026, 02:29 UTC

1 35993U 93036AWK 26256.10370393  .00001848  00000-0  33259-3 0  9993
2 35993  74.0138 163.2304 0030449 277.8983  81.8730 14.67079490644645

AllMySatでCOSMOS 2251 DEBをリアルタイム追跡

Download on the App Store